K2MST Weather Reports


time (UTC)temp
C
wind
direction
speed
KPH
gust
KPH
rain 1hr
cm
rain 24hr
cm
rain mn
cm
humidity
%
barometer
mb
20260901173021 25 45 3.2 8.0 0.00 0.43 0.38 81 1011.6
20260901172021 26 338 4.8 6.4 0.00 0.43 0.38 80 1011.6
20260901171021 26 338 6.4 9.7 0.00 0.46 0.38 79 1011.6
20260901170021 26 338 3.2 6.4 0.00 0.46 0.38 78 1011.6
20260901165021 26 23 3.2 6.4 0.00 0.46 0.38 77 1011.6
20260901164022 26 0.0 3.2 0.00 0.46 0.38 79 1011.6
20260901163021 26 23 3.2 4.8 0.00 0.46 0.38 78 1011.6
20260901162021 26 68 3.2 8.0 0.00 0.46 0.38 77 1011.5
20260901161021 25 0.0 1.6 0.00 0.46 0.38 82 1011.5
20260901160021 25 45 1.6 4.8 0.00 0.46 0.38 81 1011.6
20260901155022 26 23 3.2 8.0 0.00 0.46 0.38 78 1011.7
20260901154021 25 0.0 1.6 0.00 0.46 0.38 83 1011.7
20260901153021 24 0.0 0.0 0.00 0.48 0.38 86 1011.8
20260901152021 23 158 3.2 6.4 0.00 0.48 0.38 87 1011.6
20260901151020 22 0.0 3.2 0.00 0.48 0.38 90 1011.7
20260901150021 22 135 1.6 3.2 0.00 0.48 0.38 90 1011.8
20260901145021 21 0.0 0.0 0.00 0.51 0.38 91 1011.9
20260901144021 21 68 1.6 6.4 0.00 0.51 0.38 91 1012.0
20260901143104 -17 0.0 0.0 0.00 0.51 0.38 91
20260901142020 21 23 1.6 3.2 0.00 0.51 0.38 91 1012.0
20260901141020 21 45 1.6 3.2 0.00 0.51 0.38 91 1011.8
20260901140021 21 68 1.6 4.8 0.00 0.51 0.38 91 1011.8
20260901135041 21 68 1.6 8.0 0.00 0.51 0.38 91 1011.8
20260901134041 21 0.0 1.6 0.00 0.51 0.38 91 1011.7
20260901133021 21 0.0 1.6 0.00 0.51 0.38 92 1011.8
20260901132020 21 68 3.2 8.0 0.00 0.51 0.38 91 1011.8
20260901131020 21 0.0 1.6 0.00 0.51 0.38 92 1011.8
20260901130021 21 0.0 1.6 0.00 0.51 0.38 93 1012.0
20260901125020 21 0.0 0.0 0.00 0.51 0.38 94 1011.9
20260901124020 20 0.0 1.6 0.00 0.51 0.38 93 1011.9
20260901123020 20 0.0 0.0 0.00 0.51 0.38 94 1012.2
20260901122020 20 0.0 0.0 0.00 0.51 0.38 93 1012.1
20260901121020 20 0.0 1.6 0.00 0.51 0.38 93 1012.4
20260901120020 20 0.0 3.2 0.00 0.51 0.38 93 1012.4
20260901115020 20 0.0 3.2 0.00 0.51 0.38 93 1012.4
20260901114020 20 68 1.6 4.8 0.00 0.51 0.38 93 1012.3
20260901113023 20 68 1.6 4.8 0.00 0.51 0.38 93 1012.4
20260901112020 20 0.0 3.2 0.00 0.51 0.38 93 1012.5
20260901111040 20 0.0 0.0 0.00 0.51 0.38 93 1012.4
20260901110103 20 0.0 3.2 0.00 0.51 0.38 93 1012.3
20260901105021 20 68 1.6 3.2 0.00 0.51 0.38 93 1012.3
20260901104020 20 0.0 4.8 0.03 0.51 0.38 93 1012.2
20260901103024 20 0.0 0.0 0.15 0.51 0.38 93 1012.2
20260901102020 20 0.0 1.6 0.20 0.51 0.38 93 1012.0
20260901101020 20 0.0 1.6 0.20 0.51 0.38 93 1012.1
20260901100020 20 0.0 1.6 0.20 0.51 0.38 93 1012.1
20260901095020 20 0.0 3.2 0.20 0.51 0.38 93 1012.5
20260901094020 20 0.0 1.6 0.18 0.48 0.36 93 1012.7
20260901093022 20 248 1.6 3.2 0.05 0.36 0.23 94 1012.8
20260901092020 20 0.0 1.6 0.00 0.30 0.18 93 1012.3
20260901091023 20 135 1.6 1.6 0.00 0.30 0.18 93 1012.2
20260901090021 20 158 1.6 3.2 0.00 0.30 0.18 93 1012.0
20260901085022 20 180 3.2 4.8 0.00 0.30 0.18 93 1012.0
20260901084021 20 158 3.2 4.8 0.00 0.30 0.18 93 1012.1
20260901083042 20 158 1.6 4.8 0.00 0.30 0.18 93 1012.2
20260901082041 20 158 4.8 6.4 0.00 0.30 0.18 93 1012.3
20260901081021 20 0.0 1.6 0.03 0.30 0.18 93 1012.6
20260901080021 20 0.0 3.2 0.13 0.30 0.18 93 1012.5
20260901075021 20 0.0 3.2 0.15 0.30 0.18 93 1012.6
20260901074041 20 0.0 0.0 0.15 0.30 0.18 93 1012.8
20260901073021 20 0.0 0.0 0.15 0.30 0.18 93 1012.9
20260901072021 20 0.0 0.0 0.15 0.30 0.18 93 1013.0
20260901071041 20 0.0 0.0 0.13 0.28 0.15 93 1013.0
20260901070021 20 0.0 0.0 0.03 0.18 0.05 93 1013.1
20260901065041 20 0.0 0.0 0.00 0.15 0.03 93 1013.2
20260901064021 20 0.0 0.0 0.00 0.15 0.03 93 1013.3
20260901063041 20 0.0 0.0 0.00 0.15 0.03 93 1013.3
20260901062021 20 0.0 1.6 0.00 0.15 0.03 93 1013.4
20260901061021 20 0.0 1.6 0.00 0.15 0.03 93 1013.4
20260901055021 20 0.0 0.0 0.00 0.15 0.03 93 1013.6
20260901054021 20 0.0 0.0 0.00 0.15 0.03 93 1013.7
20260901053021 20 0.0 0.0 0.00 0.15 0.03 93 1014.0
20260901052021 20 0.0 0.0 0.00 0.15 0.03 93 1014.0
20260901051021 20 0.0 0.0 0.00 0.15 0.03 92 1013.9
20260901050021 20 0.0 0.0 0.03 0.15 0.03 92 1013.9
20260901045021 20 0.0 0.0 0.03 0.15 0.03 92 1013.8
20260901044020 20 0.0 0.0 0.03 0.15 0.03 92 1014.1
20260901043021 20 0.0 0.0 0.03 0.15 0.03 92 1014.3
20260901042020 20 0.0 0.0 0.03 0.15 0.03 92 1014.3
20260901041021 20 0.0 0.0 0.03 0.15 0.03 92 1014.4
20260901040021 20 0.0 0.0 0.00 0.13 0.13 92 1014.3
20260901035021 20 0.0 0.0 0.00 0.13 0.13 92 1014.3
20260901034020 20 0.0 0.0 0.00 0.13 0.13 92 1014.2
20260901033020 20 0.0 0.0 0.00 0.13 0.13 92 1014.2
20260901032021 20 0.0 1.6 0.00 0.13 0.13 92 1014.4
20260901031021 20 0.0 0.0 0.00 0.13 0.13 92 1014.5
20260901030020 20 0.0 1.6 0.00 0.13 0.13 92 1014.4
20260901025020 20 0.0 0.0 0.00 0.13 0.13 92 1014.4
20260901024040 20 0.0 0.0 0.00 0.13 0.13 92 1014.5
20260901023021 20 135 1.6 3.2 0.00 0.13 0.13 91 1014.5
20260901022021 20 0.0 0.0 0.00 0.13 0.13 91 1014.6
20260901021040 20 0.0 0.0 0.00 0.13 0.13 91 1014.6
20260901020021 20 0.0 3.2 0.00 0.13 0.13 91 1014.8
20260901015020 20 0.0 0.0 0.00 0.13 0.13 91 1014.9
20260901014040 20 0.0 0.0 0.00 0.13 0.13 91 1014.9
20260901013020 20 0.0 0.0 0.00 0.13 0.13 91 1014.9
20260901012020 20 0.0 0.0 0.00 0.13 0.13 91 1015.0
20260901011020 20 0.0 0.0 0.00 0.13 0.13 90 1014.9
20260901010020 20 0.0 1.6 0.00 0.13 0.13 90 1014.8
20260901005020 20 0.0 0.0 0.00 0.13 0.13 90 1014.8
20260901004020 20 0.0 0.0 0.00 0.13 0.13 90 1014.8
20260901003020 20 0.0 0.0 0.00 0.13 0.13 89 1014.7
20260901002022 20 0.0 0.0 0.00 0.13 0.13 89 1014.6
20260901001020 20 0.0 0.0 0.03 0.13 0.13 89 1014.5
20260901000020 20 0.0 0.0 0.05 0.13 0.13 89 1014.6
20260831235023 20 158 1.6 3.2 0.05 0.13 0.13 89 1014.5
20260831234020 20 158 1.6 3.2 0.05 0.13 0.13 89 1014.6
20260831233040 20 0.0 0.0 0.05 0.13 0.13 88 1014.7
20260831232020 20 0.0 0.0 0.05 0.13 0.13 88 1014.8
20260831231041 20 0.0 1.6 0.03 0.10 0.10 88 1014.7
20260831230020 21 135 1.6 3.2 0.00 0.08 0.08 87 1014.8
20260831225040 21 0.0 1.6 0.00 0.08 0.08 87 1014.8
20260831224100 21 0.0 1.6 0.00 0.08 0.08 87 1014.9
20260831223022 21 180 4.8 8.0 0.00 0.08 0.08 86 1014.9
20260831222042 21 180 3.2 8.0 0.00 0.08 0.08 85 1014.9
20260831221043 21 158 3.2 6.4 0.00 0.08 0.08 85 1014.9
20260831220041 21 158 3.2 8.0 0.00 0.08 0.08 85 1015.0
20260831215022 21 135 1.6 4.8 0.00 0.08 0.08 85 1015.0
20260831214021 21 158 1.6 4.8 0.00 0.08 0.08 85 1015.2
20260831213021 21 158 1.6 6.4 0.00 0.08 0.08 85 1015.4
20260831212021 21 180 4.8 8.0 0.00 0.08 0.08 84 1015.5
20260831211021 21 158 6.4 11.3 0.00 0.08 0.08 84 1015.5
20260831210021 21 158 4.8 6.4 0.00 0.08 0.08 84 1015.6
20260831205021 21 158 3.2 4.8 0.00 0.08 0.08 84 1015.8
20260831204021 21 158 3.2 8.0 0.00 0.08 0.08 84 1015.9
20260831203021 21 158 6.4 11.3 0.00 0.08 0.08 83 1015.9
20260831202021 21 180 3.2 9.7 0.00 0.08 0.08 83 1015.9
20260831201021 21 135 1.6 4.8 0.00 0.08 0.08 83 1015.8
20260831200021 21 0.0 3.2 0.00 0.08 0.08 83 1015.8
20260831195023 21 158 1.6 3.2 0.00 0.08 0.08 83 1015.7
20260831194021 21 135 1.6 3.2 0.00 0.08 0.08 83 1015.9
20260831193021 21 0.0 1.6 0.00 0.08 0.08 83 1016.2
20260831192021 21 158 1.6 3.2 0.00 0.08 0.08 83 1016.2
20260831191021 21 0.0 4.8 0.00 0.08 0.08 83 1016.3
20260831190021 21 135 1.6 4.8 0.00 0.08 0.08 83 1016.4
20260831185021 21 158 3.2 6.4 0.00 0.08 0.08 83 1016.6
20260831184021 21 135 3.2 6.4 0.00 0.08 0.08 84 1016.4
20260831183021 21 158 1.6 6.4 0.00 0.08 0.08 84 1016.7
20260831182021 21 158 1.6 6.4 0.00 0.08 0.08 84 1016.7
20260831181020 20 158 3.2 8.0 0.03 0.08 0.08 85 1016.6
20260831180020 20 135 1.6 4.8 0.03 0.08 0.08 86 1016.9
20260831175021 20 135 1.6 4.8 0.03 0.08 0.08 86 1017.2
20260831174020 20 158 1.6 3.2 0.03 0.08 0.08 86 1017.3